[[{"header":{"parameterUnit":"m.s-1","parameterCategory":1,"la1":30.2991,"la2":30.254,"lo1":-89.0895,"lo2":-89.0444,"dy":0.0017,"dx":0.0017,"nx":28,"ny":28,"refTime":"2025-09-14T03:00:00:Z","depth":0,"parameterNumber":2,"parameterNumberName":"U-component_of_WINDS"},"data":[0,0,0,0,0,0,0,0,0,0,0,0,0,0,0,0,0,0,0,0,0,0,0,0,0,0,0,0,0,0,0,0,0,0,0,0,0,0,0,0,0,0,0,0,0,0,0,0,0,0,0,0,0,0,0,0,0,0,-0.788,-0.7879,0,-0.7813,-0.7813,-0.7812,-0.7777,-0.7777,-0.7777,-0.7777,-0.7709,-0.7707,-0.7705,0,0,0,0,0,0,0,0,0,0,0,0,0,-0.7976,-0.7974,-0.788,-0.7879,-0.7878,-0.7814,-0.7813,-0.7812,-0.7777,-0.7777,-0.7777,-0.7777,-0.7709,-0.7707,-0.7705,0,0,0,0,0,0,0,0,0,0,0,0,0,-0.7924,-0.7974,-0.788,-0.7853,-0.785,-0.7814,-0.7813,-0.7812,-0.7777,-0.7777,-0.7777,-0.7777,-0.771,-0.7707,-0.7705,-0.769,0,0,-0.7697,-0.7695,0,0,0,0,0,0,0,0,-0.7927,-0.7921,-0.7858,-0.7855,-0.7851,-0.7804,-0.7821,-0.7771,-0.7778,-0.7805,-0.7777,-0.7777,-0.774,-0.7735,-0.7723,-0.7686,-0.7683,-0.7696,-0.7695,-0.7694,-0.7693,0,0,0,0,0,0,0,-0.7931,-0.7923,-0.7853,-0.7857,-0.7853,-0.7844,-0.7837,-0.7812,-0.7774,-0.7803,-0.78,-0.7793,-0.7739,-0.7726,-0.7721,-0.7682,-0.7696,-0.7694,-0.7692,-0.7691,-0.7631,-0.7631,0,0,0,0,0,0,-0.7939,-0.7927,-0.7856,-0.7851,-0.789,-0.7843,-0.7834,-0.7819,-0.7774,-0.7767,-0.7793,-0.7791,-0.773,-0.7724,-0.7718,-0.7698,-0.7694,-0.7691,-0.769,-0.7631,-0.7631,-0.7631,0,0,0,0,0,0,-0.7941,-0.7933,-0.7858,-0.7888,-0.7878,-0.7841,-0.7824,-0.7818,-0.7805,-0.7767,-0.776,-0.7786,-0.773,-0.7722,-0.7697,-0.7695,-0.769,-0.7687,-0.7631,-0.7631,-0.7631,-0.7657,0,0,0,0,0,0,-0.7944,-0.7934,-0.7928,-0.7888,-0.7877,-0.7838,-0.7824,-0.7817,-0.78,-0.7798,-0.7759,-0.7752,-0.7729,-0.7701,-0.7695,-0.7692,-0.7685,-0.7631,-0.7631,-0.7631,-0.7657,-0.7658,-0.766,0,0,0,0,0,-0.7948,-0.7937,-0.7928,-0.7919,-0.7868,-0.7838,-0.7831,-0.7805,-0.78,-0.7794,-0.7769,-0.7754,-0.7697,-0.7699,-0.7691,-0.7687,-0.7631,-0.7631,-0.7631,-0.7656,-0.7658,-0.766,0,0,0,0,0,0,-0.7977,-0.7932,-0.792,-0.7897,-0.7872,-0.7833,-0.7824,-0.7808,-0.7784,-0.7782,-0.7751,-0.7742,-0.772,-0.7701,-0.7705,-0.7671,-0.7662,-0.7661,-0.7684,-0.7686,-0.7687,-0.7692,-0.7683,0,0,0,0,0,-0.7981,-0.7961,-0.7922,-0.7905,-0.7893,-0.7861,-0.7847,-0.7829,-0.7801,-0.779,-0.7764,-0.7737,-0.7714,-0.7698,-0.7674,-0.7654,-0.7645,-0.7647,-0.7649,-0.765,-0.7649,-0.7638,-0.7638,-0.7631,-0.7631,-0.7631,0,0,-0.7989,-0.7961,-0.795,-0.7911,-0.7889,-0.7868,-0.7852,-0.7831,-0.7815,-0.7787,-0.7762,-0.7742,-0.771,-0.7688,-0.7676,-0.7671,-0.765,-0.765,-0.7652,-0.765,-0.7638,-0.7639,-0.7639,-0.7631,-0.7631,-0.7631,0,0,-0.7992,-0.797,-0.7954,-0.7932,-0.79,-0.7878,-0.7875,-0.7837,-0.7823,-0.7798,-0.7776,-0.7757,-0.7717,-0.7695,-0.7679,-0.7676,-0.766,-0.7669,-0.7677,-0.7666,-0.7667,-0.7667,-0.7667,-0.7667,-0.7668,-0.7668,-0.7668,0,-0.8006,-0.7974,-0.7947,-0.7927,-0.7911,-0.7885,-0.7868,-0.7849,-0.781,-0.7799,-0.7794,-0.7743,-0.772,-0.7692,-0.7692,-0.7679,-0.7674,-0.7673,-0.7669,-0.7669,-0.7669,-0.7668,-0.7668,-0.7669,-0.7669,-0.7669,-0.7669,0,-0.7993,-0.7971,-0.7962,-0.7926,-0.7908,-0.789,-0.7861,-0.7846,-0.783,-0.7809,-0.7784,-0.7755,-0.7725,-0.7717,-0.7701,-0.7688,-0.7686,-0.7675,-0.7666,-0.7672,-0.767,-0.7669,-0.7671,-0.7671,-0.767,-0.767,0,0,-0.8013,-0.7962,-0.796,-0.7943,-0.7906,-0.7888,-0.7869,-0.7841,-0.7829,-0.7803,-0.7787,-0.7754,-0.7744,-0.7726,-0.7707,-0.7697,-0.7697,-0.7688,-0.7687,-0.7691,-0.7681,-0.769,-0.769,-0.7687,-0.7687,-0.7686,-0.7684,0,-0.8011,-0.7976,-0.7952,-0.7926,-0.7906,-0.7882,-0.7865,-0.7841,-0.7821,-0.7801,-0.7779,-0.7756,-0.7745,-0.7734,-0.7723,-0.77,-0.7695,-0.7699,-0.7671,-0.7671,-0.768,-0.7689,-0.7697,-0.7696,-0.7683,-0.7683,-0.7683,0,-0.8005,-0.7981,-0.7954,-0.7919,-0.791,-0.7895,-0.7867,-0.7848,-0.782,-0.7806,-0.7787,-0.7768,-0.7747,-0.774,-0.7711,-0.7715,-0.7702,-0.7689,-0.7688,-0.7685,-0.7677,-0.7686,-0.7695,-0.7695,-0.7682,-0.7682,-0.7682,0,-0.8023,-0.7983,-0.7962,-0.7949,-0.7908,-0.7898,-0.7881,-0.7852,-0.7837,-0.7812,-0.7802,-0.7775,-0.7761,-0.7741,-0.7715,-0.7712,-0.7689,-0.768,-0.7678,-0.7678,-0.7674,-0.7674,-0.7682,-0.7665,-0.7665,-0.7665,-0.7665,0,-0.8024,-0.8008,-0.797,-0.7957,-0.7939,-0.791,-0.7893,-0.7874,-0.7849,-0.7832,-0.7809,-0.7793,-0.776,-0.7741,-0.772,-0.77,-0.7694,-0.7682,-0.7677,-0.7684,-0.7686,-0.7676,-0.7675,-0.7665,-0.7665,-0.7665,-0.7665,0,-0.8041,-0.8014,-0.7989,-0.7953,-0.7943,-0.7932,-0.79,-0.7887,-0.7866,-0.7845,-0.7838,-0.7806,-0.7782,-0.7754,-0.7721,-0.7708,-0.7689,-0.7681,-0.7699,-0.7696,-0.7695,-0.7696,-0.7696,-0.7695,-0.7679,-0.768,-0.768,0,-0.8043,-0.8031,-0.7993,-0.798,-0.7963,-0.7943,-0.7927,-0.7899,-0.7884,-0.7851,-0.7842,-0.7816,-0.7794,-0.7757,-0.773,-0.7705,-0.7697,-0.7699,-0.7693,-0.7701,-0.7697,-0.7699,-0.7697,-0.77,-0.7701,-0.7701,-0.7701,0,-0.8051,-0.8038,-0.8017,-0.7991,-0.7973,-0.7951,-0.7928,-0.7919,-0.7886,-0.787,-0.7845,-0.7828,-0.7795,-0.777,-0.7741,-0.7723,-0.7707,-0.7703,-0.7701,-0.7709,-0.772,-0.7715,-0.7704,-0.7703,-0.7703,-0.7703,-0.7703,-0.7703,-0.806,-0.8049,-0.8021,-0.7997,-0.7977,-0.7957,-0.7943,-0.792,-0.7899,-0.787,-0.7855,-0.7831,-0.7804,-0.7764,-0.7746,-0.7727,-0.7722,-0.7719,-0.7718,-0.7718,-0.7721,-0.7723,-0.7722,-0.7722,-0.7722,-0.7722,-0.7722,0,-0.8067,-0.8048,-0.8027,-0.7996,-0.7978,-0.7965,-0.7939,-0.7925,-0.7904,-0.788,-0.7859,-0.7831,-0.7807,-0.7779,-0.7753,-0.7743,-0.7735,-0.7737,-0.7738,-0.7734,-0.7727,-0.7731,-0.7745,-0.7745,-0.7745,-0.7745,-0.7745,-0.7745,-0.8069,-0.8048,-0.8033,-0.8002,-0.7983,-0.7959,-0.7946,-0.7927,-0.7908,-0.7878,-0.7858,-0.784,-0.7814,-0.7787,-0.7764,-0.7756,-0.7748,-0.7753,-0.7743,-0.7737,-0.7735,-0.7733,-0.7737,-0.7751,-0.7751,-0.7752,-0.7752,-0.7752]},{"header":{"parameterUnit":"m.s-1","parameterCategory":1,"la1":30.2991,"la2":30.254,"lo1":-89.0895,"lo2":-89.0444,"dy":0.0017,"dx":0.0017,"nx":28,"ny":28,"refTime":"2025-09-14T03:00:00:Z","depth":0,"parameterNumber":3,"parameterNumberName":"V-component_of_WINDS"},"data":[0,0,0,0,0,0,0,0,0,0,0,0,0,0,0,0,0,0,0,0,0,0,0,0,0,0,0,0,0,0,0,0,0,0,0,0,0,0,0,0,0,0,0,0,0,0,0,0,0,0,0,0,0,0,0,0,0,0,0.8475,0.8475,0,0.8472,0.8472,0.8472,0.8462,0.8462,0.8462,0.8462,0.8458,0.8458,0.8458,0,0,0,0,0,0,0,0,0,0,0,0,0,0.8468,0.8468,0.8475,0.8475,0.8475,0.8472,0.8472,0.8472,0.8462,0.8462,0.8462,0.8462,0.8458,0.8458,0.8458,0,0,0,0,0,0,0,0,0,0,0,0,0,0.8469,0.8468,0.8475,0.847,0.8469,0.8472,0.8472,0.8472,0.8462,0.8462,0.8462,0.8461,0.8458,0.8458,0.8458,0.8466,0,0,0.8459,0.8459,0,0,0,0,0,0,0,0,0.8469,0.8469,0.847,0.847,0.8469,0.8467,0.8469,0.847,0.8463,0.8465,0.8462,0.8461,0.8461,0.8461,0.8462,0.8466,0.8466,0.8459,0.8459,0.8459,0.8459,0,0,0,0,0,0,0,0.8469,0.8469,0.8474,0.847,0.847,0.8466,0.8466,0.8469,0.8465,0.8465,0.8464,0.8464,0.8461,0.8461,0.8461,0.8466,0.8459,0.8459,0.8459,0.8459,0.8473,0.8473,0,0,0,0,0,0,0.847,0.8469,0.8474,0.8474,0.8468,0.8467,0.8466,0.8468,0.8465,0.8464,0.8464,0.8463,0.8461,0.8461,0.8461,0.8468,0.8459,0.8459,0.8459,0.8473,0.8473,0.8474,0,0,0,0,0,0,0.847,0.847,0.8474,0.8471,0.8471,0.8467,0.8469,0.8468,0.8469,0.8465,0.8464,0.8465,0.8461,0.8461,0.8464,0.8468,0.8459,0.846,0.8473,0.8473,0.8473,0.8483,0,0,0,0,0,0,0.847,0.847,0.8474,0.8471,0.8472,0.8478,0.847,0.8469,0.8469,0.8468,0.8466,0.8465,0.8461,0.8464,0.8465,0.8468,0.846,0.8472,0.8473,0.8473,0.8483,0.8484,0.8485,0,0,0,0,0,0.8469,0.8478,0.8475,0.8475,0.8477,0.8479,0.8479,0.8474,0.847,0.8473,0.8469,0.8465,0.8467,0.8465,0.8465,0.8469,0.8472,0.8473,0.8473,0.8482,0.8484,0.8485,0,0,0,0,0,0,0.8481,0.8477,0.8474,0.8482,0.848,0.8477,0.8481,0.8476,0.8476,0.8475,0.8469,0.8469,0.8472,0.8471,0.8468,0.8474,0.8469,0.8469,0.8475,0.8477,0.8478,0.8478,0.846,0,0,0,0,0,0.8485,0.8488,0.8484,0.8491,0.849,0.8485,0.8486,0.8483,0.8481,0.8481,0.8478,0.8476,0.8476,0.8476,0.8477,0.8482,0.848,0.8484,0.8486,0.8487,0.8487,0.8487,0.8489,0.8475,0.8475,0.8475,0,0,0.8492,0.849,0.8493,0.8493,0.8492,0.8493,0.8485,0.8488,0.8489,0.8481,0.8484,0.8481,0.8478,0.8482,0.8484,0.8481,0.849,0.8487,0.8488,0.8488,0.8488,0.8489,0.8491,0.8476,0.8476,0.8476,0,0,0.8506,0.8506,0.8511,0.8509,0.8507,0.8503,0.8504,0.85,0.8498,0.8501,0.8494,0.8494,0.8496,0.8493,0.8492,0.8502,0.8497,0.8502,0.8508,0.8509,0.851,0.8511,0.8513,0.8513,0.8503,0.8503,0.8503,0,0.8516,0.8519,0.8513,0.8516,0.8515,0.8507,0.8511,0.851,0.8507,0.8507,0.8503,0.8502,0.85,0.8502,0.8504,0.8504,0.8504,0.8502,0.851,0.8511,0.8512,0.8513,0.8514,0.8503,0.8503,0.8503,0.8503,0,0.8529,0.8531,0.8535,0.8532,0.8532,0.8535,0.8529,0.8529,0.8525,0.8521,0.8522,0.8519,0.8517,0.8517,0.8513,0.8518,0.8516,0.8511,0.8506,0.8514,0.8515,0.8516,0.8504,0.8504,0.8504,0.8503,0,0,0.8552,0.8545,0.8546,0.8544,0.8539,0.854,0.8542,0.8539,0.8539,0.8537,0.8537,0.8536,0.8532,0.853,0.8526,0.8526,0.8532,0.8522,0.8521,0.8523,0.8534,0.8537,0.8538,0.8528,0.8528,0.8528,0.8534,0,0.8564,0.8567,0.8561,0.8564,0.8565,0.8556,0.8557,0.8554,0.855,0.8548,0.8544,0.8543,0.8538,0.8536,0.8536,0.8531,0.8534,0.8531,0.8527,0.8527,0.8528,0.8539,0.8542,0.8547,0.8534,0.8535,0.8535,0,0.8579,0.8577,0.858,0.8573,0.8573,0.8574,0.857,0.857,0.8565,0.8562,0.8559,0.8553,0.8552,0.8547,0.8545,0.8543,0.8541,0.8538,0.8538,0.8537,0.8531,0.8537,0.8549,0.855,0.8536,0.8536,0.8536,0,0.8593,0.8591,0.8592,0.859,0.8583,0.8583,0.858,0.8575,0.8573,0.857,0.8568,0.8564,0.8562,0.8559,0.8552,0.8549,0.855,0.8544,0.8546,0.8546,0.8547,0.8547,0.8558,0.8546,0.8546,0.8546,0.8546,0,0.8606,0.8608,0.8598,0.8599,0.86,0.8592,0.8593,0.8589,0.8584,0.8583,0.8575,0.8574,0.8565,0.8562,0.8556,0.8555,0.8554,0.855,0.8549,0.8551,0.8551,0.8549,0.8548,0.8547,0.8547,0.8547,0.8547,0,0.8622,0.8616,0.8616,0.8608,0.8606,0.8607,0.86,0.8599,0.8594,0.8592,0.8591,0.8583,0.8579,0.8571,0.8566,0.8562,0.8561,0.8558,0.8562,0.8561,0.8563,0.8562,0.8573,0.8573,0.8562,0.8562,0.8563,0,0.8631,0.8632,0.8624,0.8622,0.8619,0.8617,0.8615,0.8606,0.8604,0.8597,0.8597,0.8593,0.8589,0.8583,0.8575,0.857,0.8567,0.8571,0.8566,0.8568,0.8566,0.8566,0.8565,0.8572,0.8572,0.8572,0.8572,0,0.8646,0.8642,0.8639,0.8635,0.8632,0.8628,0.8624,0.8623,0.8613,0.8611,0.8607,0.8603,0.8597,0.8592,0.8585,0.8581,0.8574,0.8574,0.8574,0.8576,0.8577,0.8575,0.8564,0.8574,0.8573,0.8573,0.8573,0.8573,0.8658,0.8657,0.8651,0.8647,0.8643,0.8638,0.8637,0.8631,0.8627,0.8621,0.8616,0.8612,0.8605,0.8595,0.8591,0.8587,0.8584,0.8584,0.8584,0.8584,0.8584,0.8578,0.8586,0.8586,0.8586,0.8586,0.8585,0,0.8671,0.8666,0.8663,0.8656,0.8653,0.8648,0.8642,0.8639,0.8636,0.863,0.8625,0.8619,0.8614,0.8605,0.8599,0.8597,0.8594,0.8596,0.8595,0.8594,0.8588,0.8588,0.8598,0.8598,0.8598,0.8598,0.8598,0.8598,0.8678,0.8676,0.8671,0.8667,0.8662,0.8658,0.8654,0.865,0.8645,0.8638,0.8634,0.8628,0.8621,0.8613,0.8608,0.8605,0.8603,0.8605,0.8602,0.8596,0.8595,0.8594,0.8594,0.8605,0.8605,0.8608,0.8608,0.8608]}]]